Dubuque, IA

8:39 AM CDT on April 28, 2017 (GMT -0500)
Dubuque Regional

Weather History for KDBQ - September, 2013

Change the Weather History Date:

Friday, September 20, 2013

  Actual Average Record
Temperature  
Mean Temperature 59 °F 60 °F  
Max Temperature 66 °F 71 °F 92 °F (1895)
Min Temperature 52 °F 50 °F 28 °F (1956)
Degree Days  
Heating Degree Days 6 6  
Month to date heating degree days 54 72  
Since 1 July heating degree days 86 99  
Cooling Degree Days 0 1  
Month to date cooling degree days 93 52  
Year to date cooling degree days 629 628  
Growing Degree Days 8 (Base 50)    
Moisture  
Dew Point 57 °F    
Average Humidity 84    
Maximum Humidity 100    
Minimum Humidity 67    
Precipitation  
Precipitation 0.01 in 0.12 in 2.27 in (1965)
Month to date precipitation 2.06 2.36  
Year to date precipitation 32.75 28.34  
Snow  
Snow 0.00 in 0.00 in - ()
Month to date snowfall 0.0 0.0  
Since 1 July snowfall 0.0 0.0  
Since 1 September snowfall 0.0 0.0  
Snow Depth 0.00 in    
Sea Level Pressure  
Sea Level Pressure 29.85 in    
Wind  
Wind Speed 10 mph (West)    
Max Wind Speed 18 mph    
Max Gust Speed 24 mph    
Visibility 10 miles    
Events Rain    
T = Trace of Precipitation, MM = Missing Value Source: NWS Daily Summary

Daily Weather History Graph

Daily Weather History Graph

Search for Another Location

Airport or City:

Trip Planner

Search our weather history database for the weather conditions in past years. The results will help you decide how hot, cold, wet, or windy it might be!

Date:

Astronomy

Sep. 20, 2013 Rise Set
Actual Time 6:48 AM CDT 7:03 PM CDT
Civil Twilight 6:20 AM CDT 7:31 PM CDT
Nautical Twilight 5:47 AM CDT 8:04 PM CDT
Astronomical Twilight 5:13 AM CDT 8:37 PM CDT
Moon 7:34 PM CDT (9/20) 8:05 AM CDT (9/20)
Length of Visible Light 13h 10m
Length of Day
12h 14m
Full, 98% of the Moon is Illuminated
Sep 20
Full
Sep 26
Last Quarter
Oct 4
New
Oct 11
First Quarter
Oct 18
Full

Hourly Weather History & Observations

Time (CDT) Temp. Dew Point Humidity Pressure Visibility Wind Dir Wind Speed Gust Speed Precip Events Conditions
12:32 AM 64.4 °F 64.4 °F 100% 29.84 in 10.0 mi SSW 10.4 mph - N/A   Overcast
12:44 AM 64.4 °F 64.4 °F 100% 29.83 in 10.0 mi SSW 10.4 mph - N/A   Overcast
12:53 AM 64.9 °F 64.9 °F 100% 29.81 in 10.0 mi SSW 11.5 mph - N/A   Overcast
1:19 AM 64.4 °F 64.4 °F 100% 29.83 in 10.0 mi SW 10.4 mph - N/A   Overcast
1:53 AM 64.9 °F 64.9 °F 100% 29.80 in 6.0 mi SW 10.4 mph - 0.01 in Rain Light Rain
2:53 AM 66.0 °F 66.0 °F 100% 29.78 in 7.0 mi WSW 11.5 mph - 0.00 in   Overcast
3:53 AM 64.9 °F 64.9 °F 100% 29.77 in 4.0 mi WSW 10.4 mph - N/A   Overcast
4:29 AM 66.2 °F 66.2 °F 100% 29.80 in 9.0 mi West 9.2 mph - N/A   Overcast
4:53 AM 66.0 °F 64.9 °F 96% 29.80 in 10.0 mi West 9.2 mph - N/A   Overcast
5:08 AM 64.4 °F 64.4 °F 100% 29.81 in 10.0 mi West 11.5 mph - N/A   Overcast
5:30 AM 64.4 °F 62.6 °F 94% 29.82 in 10.0 mi West 11.5 mph - N/A   Overcast
5:50 AM 62.6 °F 62.6 °F 100% 29.82 in 10.0 mi WNW 12.7 mph - N/A   Partly Cloudy
5:53 AM 63.0 °F 62.1 °F 97% 29.81 in 10.0 mi WNW 10.4 mph - N/A   Partly Cloudy
6:53 AM 60.1 °F 59.0 °F 96% 29.83 in 10.0 mi WNW 6.9 mph - N/A   Clear
7:53 AM 59.0 °F 57.0 °F 93% 29.86 in 10.0 mi WNW 8.1 mph - N/A   Clear
8:53 AM 59.0 °F 55.9 °F 90% 29.88 in 10.0 mi WNW 15.0 mph - N/A   Partly Cloudy
9:53 AM 61.0 °F 55.9 °F 83% 29.88 in 10.0 mi WNW 11.5 mph 16.1 mph N/A   Clear
10:53 AM 61.0 °F 55.0 °F 81% 29.88 in 10.0 mi WNW 12.7 mph - N/A   Clear
11:41 AM 62.6 °F 53.6 °F 72% 29.88 in 10.0 mi West 10.4 mph - N/A   Mostly Cloudy
11:53 AM 62.1 °F 54.0 °F 75% 29.88 in 10.0 mi West 16.1 mph - N/A   Mostly Cloudy
12:53 PM 61.0 °F 52.0 °F 72% 29.88 in 10.0 mi WNW 11.5 mph - N/A   Overcast
1:13 PM 62.6 °F 51.8 °F 68% 29.88 in 10.0 mi WNW 16.1 mph 24.2 mph N/A   Mostly Cloudy
1:53 PM 62.1 °F 52.0 °F 70% 29.87 in 10.0 mi WNW 15.0 mph 20.7 mph N/A   Overcast
2:34 PM 60.8 °F 51.8 °F 72% 29.88 in 10.0 mi NW 15.0 mph - N/A   Overcast
2:42 PM 62.6 °F 51.8 °F 68% 29.88 in 10.0 mi WNW 13.8 mph - N/A   Overcast
2:53 PM 61.0 °F 52.0 °F 72% 29.88 in 10.0 mi WNW 10.4 mph - N/A   Overcast
3:53 PM 61.0 °F 53.1 °F 75% 29.88 in 10.0 mi WNW 12.7 mph - N/A   Overcast
4:53 PM 60.1 °F 53.1 °F 78% 29.88 in 10.0 mi WNW 10.4 mph - N/A   Overcast
5:53 PM 60.1 °F 53.1 °F 78% 29.87 in 10.0 mi West 9.2 mph - N/A   Overcast
6:53 PM 59.0 °F 54.0 °F 83% 29.88 in 10.0 mi WSW 6.9 mph - N/A   Overcast
7:53 PM 55.0 °F 54.0 °F 96% 29.90 in 10.0 mi West 5.8 mph - N/A   Scattered Clouds
8:53 PM 55.0 °F 52.0 °F 89% 29.90 in 10.0 mi West 4.6 mph - N/A   Clear
9:53 PM 55.0 °F 51.1 °F 86% 29.91 in 10.0 mi WNW 11.5 mph - N/A   Clear
10:53 PM 54.0 °F 51.1 °F 90% 29.91 in 10.0 mi WNW 9.2 mph - N/A   Clear
11:53 PM 53.1 °F 50.0 °F 89% 29.91 in 10.0 mi NW 11.5 mph - N/A   Clear